NOSS 2-2 (D) - Orbit

View from above orbital plane
View from above orbital plane
View from above satellite
View from above satellite

Ground track
Ground track

The orbit data is extracted from the following two-line orbital elements,

1 21808U 91076D   13151.65716218 0.00000100  00000-0  56161-4 0    06
2 21808  63.3800 305.7518 0627500  11.6010 348.3990 13.40484056    00
Epoch (UTC): 31 May 2013 15:46:18
Eccentricity: 0.0627500
inclination: 63.3800°
perigee height: 638 km
apogee height: 1577 km
right ascension of ascending node: 305.7518°
argument of perigee: 11.6010°
revolutions per day: 13.40484056
mean anomaly at epoch: 348.3990°
orbit number at epoch: 0

The dashed part of the orbit path shows where the satellite is in the earth's shadow,  

Developed and maintained by Chris Peat, Heavens-Above GmbH. Please read the updated FAQ before sending e-mail. Imprint. DLR